Home   Weather   Canton   Past weeks

Flag for USA Past Weather in Canton, Ohio, USA — Yesterday and Last 2 Weeks

Now
34 °F

Passing clouds.


Feels Like: 25 °F
Forecast: 26 / 40 °F
Wind: 14 mph from Southwest

Location: Akron-Canton Regional Airport

Current Time: Feb 26, 2017 at 2:04:46 pm

Latest Report: Feb 26, 2017 at 12:51 pm


Visibility: 10 mi

Pressure: 30.17 "Hg

Humidity: 50%

Dew Point: 17 °F

Location of CantonLocation

Past Weather in Canton — Graph

°F

Canton Temperature Yesterday

Maximum temperature yesterday: 60 °F (at 12:01 am)
Minimum temperature yesterday: 27 °F (at 9:51 pm)
Average temperature yesterday: 42 °F

High & Low Weather Summary for the Past Weeks

 TemperatureHumidityPressure
High75 °F (Feb 24, 2:51 pm)93% (Feb 12, 6:51 am)30.30 "Hg (Feb 12, 6:51 am)
Low23 °F (Feb 16, 6:51 am)31% (Feb 19, 3:51 pm)29.50 "Hg (Feb 24, 10:51 pm)
Average44 °F67%29.88 "Hg
* Reported Feb 11 12:51 pm — Feb 26 12:51 pm, Canton, Weather by CustomWeather, © 2017

Note: Actual official high and low records may vary slightly from our data, if they occured in-between our weather recording intervals... More about our weather records

Advertising

Canton Weather History for the Previous 24 Hours

Scroll right to see more
 ConditionsComfort  
Time TempWeatherWind HumidityBarometerVisibility
12:51 pm
Sun, Feb 26
34 °FPassing clouds.14 mph50%30.17 "Hg10 mi
11:51 am31 °FPassing clouds.14 mph57%30.18 "Hg10 mi
10:51 am29 °FPartly sunny.14 mph54%30.19 "Hg10 mi
9:51 am28 °FOvercast.12 mph53%30.18 "Hg10 mi
8:51 am26 °FOvercast.14 mph57%30.16 "Hg10 mi
7:51 am26 °FLight snow. Partly sunny.10 mph57%30.13 "Hg10 mi
6:51 am25 °FMostly cloudy.13 mph66%30.11 "Hg10 mi
5:51 am26 °FOvercast.13 mph66%30.09 "Hg10 mi
4:51 am25 °FOvercast.9 mph69%30.06 "Hg10 mi
3:51 am26 °FOvercast.10 mph66%30.04 "Hg10 mi
2:51 am26 °FLight snow. Overcast.13 mph66%30.03 "Hg9 mi
1:51 am27 °FLight snow. Overcast.8 mph66%30.02 "Hg7 mi
12:51 am26 °FLight snow. Overcast.10 mph69%30.01 "Hg4 mi
11:51 pm
Sat, Feb 25
27 °FLight snow. Overcast.14 mph61%29.99 "Hg9 mi
10:51 pm27 °FLight snow. Overcast.16 mph61%29.99 "Hg9 mi
9:51 pm27 °FLight snow. Overcast.17 mph58%29.97 "Hg8 mi
8:51 pm28 °FLight snow. Overcast.14 mph64%29.94 "Hg9 mi
7:51 pm28 °FLight snow. Overcast.16 mph64%29.91 "Hg9 mi
6:51 pm29 °FLight snow. Overcast.22 mph61%29.87 "Hg9 mi
5:59 pm29 °FLight snow. More clouds than sun.18 mph75%29.82 "Hg9 mi
4:51 pm33 °FOvercast.23 mph58%29.78 "Hg10 mi
4:08 pm34 °FLight snow. Mostly cloudy.24 mph67%29.74 "Hg9 mi
3:51 pm34 °FLight snow. Mostly cloudy.17 mph70%29.75 "Hg1 mi
3:31 pm34 °FLight snow. Mostly cloudy.21 mph79%29.73 "Hg1 mi
3:15 pm36 °FLight snow. Mostly cloudy.20 mph67%29.72 "Hg2 mi
2:51 pm38 °FLight snow. Mostly cloudy.14 mph65%29.71 "Hg8 mi
Weather by CustomWeather, © 2017

See weather overviewHow to use our weather pages